Location: Unspecified
(0.0000°N, 0.0000°E)
Time: 06:23:10
(UTC+00:00)

STARLINK-2667 - Pass Details

Date: 12 June 2021
Orbit: 349 x 350 km, 53.0° (Epoch: 20 June)

Event Time Altitude Azimuth Distance (km) Brightness Sun altitude
Exits shadow 04:34:57 - 153° (SSE) 1,405 5.7 -19.4°
Reaches altitude 10° 04:35:35 10° 142° (SE) 1,303 5.7 -19.3°
Maximum altitude 04:36:26 11° 125° (SE) 1,249 5.8 -19.1°
Drops below altitude 10° 04:37:16 10° 108° (ESE) 1,297 6.2 -18.9°
Sets 04:40:30 0° 68° (ENE) 2,138 8.4 -18.2°
